When you browse on this site, cookies collect data to enhance your experience and personalize the content and advertising you see.
Visit our Privacy Policy to learn more. By continuing to use the site, you agree to this use of cookies and data.
  • In Hungary
  • List of Countries
  • For 7 days
  • Water Temperature
  • Satellite Maps
  • Weather Map
  • News
  • Weather Widgets
  • user-avatar
    Login

    Hourly Weather Jishui

    Today, 20 February, Wednesday

    Time Temperature Precipitation Wind Pressure Humidity
    00:00 +2°C° 0 mm 1 mps 765 mmHg 70%
    01:00 +1°C° 0 mm 1 mps 766 mmHg 72%
    02:00 +1°C° 0 mm 1 mps 765 mmHg 72%
    03:00 +1°C° 0 mm 1 mps 766 mmHg 73%
    04:00 +1°C° 0 mm 1 mps 766 mmHg 73%
    05:00 0°C° 0 mm 0 mps 766 mmHg 73%
    06:00 +1°C° 0 mm 1 mps 766 mmHg 71%
    07:00 +2°C° 0 mm 1 mps 766 mmHg 69%
    08:00 +1°C° 0 mm 2 mps 767 mmHg 67%
    09:00 +3°C° 0 mm 2 mps 767 mmHg 60%
    10:00 +5°C° 0 mm 2 mps 767 mmHg 52%
    11:00 +7°C° 0 mm 2 mps 768 mmHg 45%
    12:00 +7°C° 0 mm 2 mps 768 mmHg 45%
    13:00 +7°C° 0 mm 2 mps 767 mmHg 45%
    14:00 +8°C° 0 mm 3 mps 767 mmHg 44%
    15:00 +8°C° 0 mm 2 mps 767 mmHg 47%
    16:00 +7°C° 0 mm 2 mps 767 mmHg 49%
    17:00 +7°C° 0 mm 2 mps 767 mmHg 51%
    18:00 +6°C° 0 mm 2 mps 767 mmHg 55%
    19:00 +6°C° 0 mm 1 mps 768 mmHg 58%
    20:00 +5°C° 0 mm 1 mps 768 mmHg 62%
    21:00 +5°C° 0 mm 1 mps 768 mmHg 62%
    22:00 +4°C° 0 mm 1 mps 768 mmHg 63%
    23:00 +4°C° 0 mm 1 mps 769 mmHg 64%

    Tomorrow, 21 February, Thursday

    Time Temperature Precipitation Wind Pressure Humidity
    00:00 +4°C° 0 mm 1 mps 769 mmHg 65%
    01:00 +3°C° 0 mm 1 mps 769 mmHg 67%
    02:00 +3°C° 0 mm 1 mps 769 mmHg 68%
    03:00 +3°C° 0 mm 1 mps 768 mmHg 70%
    04:00 +1°C° 0 mm 2 mps 768 mmHg 71%
    05:00 +1°C° 0 mm 2 mps 768 mmHg 73%
    06:00 +1°C° 0 mm 2 mps 768 mmHg 73%
    07:00 +2°C° 0 mm 2 mps 768 mmHg 72%
    08:00 +2°C° 0 mm 2 mps 768 mmHg 72%
    09:00 +4°C° 0 mm 2 mps 768 mmHg 65%
    10:00 +5°C° 0 mm 3 mps 768 mmHg 58%
    11:00 +8°C° 0 mm 3 mps 768 mmHg 51%
    12:00 +9°C° 0 mm 3 mps 768 mmHg 45%
    13:00 +9°C° 0 mm 3 mps 767 mmHg 40%
    14:00 +10°C° 0 mm 3 mps 766 mmHg 34%
    15:00 +10°C° 0 mm 3 mps 766 mmHg 35%
    16:00 +9°C° 0 mm 2 mps 766 mmHg 37%
    17:00 +9°C° 0 mm 2 mps 765 mmHg 38%
    18:00 +8°C° 0 mm 2 mps 766 mmHg 39%
    19:00 +9°C° 0 mm 1 mps 766 mmHg 40%
    20:00 +8°C° 0 mm 1 mps 766 mmHg 41%
    21:00 +8°C° 0 mm 1 mps 766 mmHg 42%
    22:00 +8°C° 0 mm 1 mps 766 mmHg 44%
    23:00 +6°C° 0 mm 0 mps 766 mmHg 45%

    Day after tomorrow, 22 February, Friday

    Time Temperature Precipitation Wind Pressure Humidity
    00:00 +7°C° 0.1 mm 1 mps 766 mmHg 49%
    01:00 +7°C° 0.1 mm 1 mps 765 mmHg 53%
    02:00 +5°C° 0.1 mm 2 mps 765 mmHg 57%
    03:00 +5°C° 0 mm 2 mps 765 mmHg 59%
    04:00 +5°C° 0 mm 2 mps 764 mmHg 60%
    05:00 +6°C° 0 mm 1 mps 764 mmHg 62%
    06:00 +5°C° 0 mm 2 mps 764 mmHg 62%
    07:00 +5°C° 0 mm 2 mps 765 mmHg 62%
    08:00 +5°C° 0 mm 2 mps 765 mmHg 63%
    09:00 +7°C° 0 mm 2 mps 765 mmHg 55%
    10:00 +8°C° 0 mm 2 mps 766 mmHg 47%
    11:00 +10°C° 0 mm 2 mps 766 mmHg 40%
    12:00 +12°C° 0 mm 2 mps 765 mmHg 36%
    13:00 +13°C° 0 mm 2 mps 765 mmHg 33%
    14:00 +14°C° 0 mm 2 mps 764 mmHg 29%
    15:00 +14°C° 0 mm 2 mps 764 mmHg 30%
    16:00 +14°C° 0 mm 2 mps 764 mmHg 30%
    17:00 +14°C° 0 mm 2 mps 764 mmHg 30%
    18:00 +12°C° 0 mm 1 mps 764 mmHg 33%
    19:00 +11°C° 0 mm 1 mps 765 mmHg 36%
    20:00 +9°C° 0 mm 1 mps 766 mmHg 39%
    21:00 +8°C° 0 mm 1 mps 766 mmHg 41%
    22:00 +8°C° 0 mm 1 mps 766 mmHg 43%
    23:00 +7°C° 0 mm 1 mps 767 mmHg 45%

    23 February, Saturday

    Time Temperature Precipitation Wind Pressure Humidity
    00:00 +7°C° 0 mm 1 mps 767 mmHg 49%
    01:00 +6°C° 0 mm 1 mps 767 mmHg 53%
    02:00 +5°C° 0 mm 1 mps 767 mmHg 56%
    03:00 +5°C° 0 mm 1 mps 766 mmHg 57%
    04:00 +5°C° 0 mm 1 mps 766 mmHg 58%
    05:00 +5°C° 0 mm 1 mps 766 mmHg 59%
    06:00 +5°C° 0 mm 1 mps 766 mmHg 58%
    07:00 +5°C° 0 mm 1 mps 767 mmHg 56%
    08:00 +6°C° 0 mm 1 mps 767 mmHg 54%
    09:00 +7°C° 0 mm 2 mps 767 mmHg 46%
    10:00 +9°C° 0 mm 2 mps 768 mmHg 38%
    11:00 +12°C° 0 mm 3 mps 768 mmHg 30%
    12:00 +13°C° 0 mm 3 mps 767 mmHg 27%
    13:00 +13°C° 0 mm 3 mps 766 mmHg 24%
    14:00 +14°C° 0 mm 3 mps 765 mmHg 22%
    15:00 +15°C° 0 mm 2 mps 765 mmHg 23%
    16:00 +15°C° 0 mm 2 mps 765 mmHg 24%
    17:00 +15°C° 0 mm 2 mps 764 mmHg 25%
    18:00 +13°C° 0 mm 2 mps 765 mmHg 28%
    19:00 +10°C° 0 mm 2 mps 765 mmHg 31%
    20:00 +9°C° 0 mm 2 mps 765 mmHg 34%
    21:00 +9°C° 0 mm 2 mps 765 mmHg 35%
    22:00 +8°C° 0 mm 2 mps 765 mmHg 36%
    23:00 +9°C° 0 mm 1 mps 766 mmHg 38%

    24 February, Sunday

    Time Temperature Precipitation Wind Pressure Humidity
    00:00 +9°C° 0 mm 1 mps 765 mmHg 40%
    01:00 +9°C° 0 mm 1 mps 765 mmHg 42%
    02:00 +8°C° 0 mm 1 mps 765 mmHg 43%
    03:00 +8°C° 0 mm 1 mps 765 mmHg 45%
    04:00 +7°C° 0 mm 2 mps 764 mmHg 47%
    05:00 +6°C° 0 mm 2 mps 764 mmHg 49%
    06:00 +7°C° 0 mm 2 mps 764 mmHg 49%
    07:00 +7°C° 0 mm 2 mps 764 mmHg 49%
    08:00 +7°C° 0 mm 2 mps 764 mmHg 50%
    09:00 +8°C° 0 mm 2 mps 764 mmHg 45%
    10:00 +9°C° 0 mm 2 mps 765 mmHg 41%
    11:00 +10°C° 0 mm 2 mps 765 mmHg 37%
    12:00 +12°C° 0 mm 2 mps 764 mmHg 34%
    13:00 +13°C° 0 mm 2 mps 763 mmHg 31%
    14:00 +13°C° 0 mm 2 mps 763 mmHg 28%
    15:00 +13°C° 0 mm 2 mps 762 mmHg 29%
    16:00 +13°C° 0 mm 2 mps 762 mmHg 31%
    17:00 +13°C° 0 mm 2 mps 762 mmHg 32%
    18:00 +12°C° 0 mm 2 mps 762 mmHg 37%
    19:00 +9°C° 0 mm 2 mps 762 mmHg 43%
    20:00 +8°C° 0 mm 2 mps 763 mmHg 48%
    21:00 +8°C° 0 mm 2 mps 763 mmHg 51%
    22:00 +8°C° 0 mm 1 mps 763 mmHg 54%
    23:00 +8°C° 0 mm 1 mps 763 mmHg 56%

    25 February, Monday

    Time Temperature Precipitation Wind Pressure Humidity
    00:00 +8°C° 0 mm 1 mps 763 mmHg 57%
    01:00 +8°C° 0 mm 1 mps 763 mmHg 58%
    02:00 +8°C° 0 mm 1 mps 763 mmHg 58%
    03:00 +7°C° 0 mm 1 mps 763 mmHg 59%
    04:00 +6°C° 0 mm 2 mps 763 mmHg 60%
    05:00 +6°C° 0 mm 2 mps 762 mmHg 60%
    06:00 +6°C° 0 mm 2 mps 763 mmHg 59%
    07:00 +7°C° 0 mm 1 mps 764 mmHg 58%
    08:00 +7°C° 0 mm 1 mps 764 mmHg 57%
    09:00 +8°C° 0 mm 2 mps 764 mmHg 51%
    10:00 +9°C° 0 mm 2 mps 765 mmHg 45%
    11:00 +12°C° 0 mm 2 mps 765 mmHg 39%
    12:00 +13°C° 0 mm 2 mps 764 mmHg 37%
    13:00 +13°C° 0 mm 3 mps 764 mmHg 34%
    14:00 +14°C° 0 mm 3 mps 763 mmHg 31%
    15:00 +14°C° 0 mm 3 mps 763 mmHg 33%
    16:00 +14°C° 0 mm 3 mps 763 mmHg 35%
    17:00 +14°C° 0 mm 3 mps 763 mmHg 37%
    18:00 +13°C° 0 mm 3 mps 763 mmHg 41%
    19:00 +12°C° 0 mm 2 mps 764 mmHg 44%
    20:00 +10°C° 0 mm 2 mps 764 mmHg 48%
    21:00 +10°C° 0 mm 2 mps 764 mmHg 48%
    22:00 +10°C° 0 mm 2 mps 765 mmHg 49%
    23:00 +9°C° 0 mm 2 mps 765 mmHg 49%
    Show more